South International Falls, MN

7:46 PM CST on February 23, 2017 (GMT -0600)
Falls International

Weather History for KINL - April, 2013

Change the Weather History Date:

Sunday, April 21, 2013

  Actual Average Record
Temperature  
Mean Temperature 31 °F 42 °F  
Max Temperature 37 °F 55 °F 90 °F (1980)
Min Temperature 24 °F 30 °F 11 °F (1966)
Degree Days  
Heating Degree Days 34 23  
Month to date heating degree days 793 585  
Since 1 July heating degree days 9862 9451  
Cooling Degree Days 0 0  
Month to date cooling degree days 0 0  
Year to date cooling degree days 0 0  
Moisture  
Dew Point 26 °F    
Average Humidity 73    
Maximum Humidity 100    
Minimum Humidity 46    
Precipitation  
Precipitation 0.35 in 0.05 in 1.00 in (1964)
Month to date precipitation 1.47 0.97  
Year to date precipitation 6.28 3.11  
Snow  
Snow 1.70 in 0.10 in 2.40 in (2012)
Month to date snowfall 13.6 5.2  
Since 1 July snowfall 98.6 69.6  
Snow Depth 19.00 in    
Sea Level Pressure  
Sea Level Pressure 30.08 in    
Wind  
Wind Speed 8 mph (South)    
Max Wind Speed 16 mph    
Max Gust Speed 26 mph    
Visibility 6 miles    
Events Fog , Snow    
T = Trace of Precipitation, MM = Missing Value Source: NWS Daily Summary

Daily Weather History Graph

Daily Weather History Graph

Search for Another Location

Airport or City:

Trip Planner

Search our weather history database for the weather conditions in past years. The results will help you decide how hot, cold, wet, or windy it might be!

Date:

Astronomy

Apr. 21, 2013 Rise Set
Actual Time 6:11 AM CDT 8:14 PM CDT
Civil Twilight 5:37 AM CDT 8:48 PM CDT
Nautical Twilight 4:55 AM CDT 9:30 PM CDT
Astronomical Twilight 4:08 AM CDT 10:17 PM CDT
Moon 3:40 PM CDT (4/21) 3:55 AM CDT (4/21)
Length of Visible Light 15h 10m
Length of Day
14h 02m
Waxing Gibbous, 80% of the Moon is Illuminated
Apr 21
Waxing Gibbous
Apr 25
Full
May 2
Last Quarter
May 9
New
May 17
First Quarter

Hourly Weather History & Observations

Time (CDT) Temp. Windchill Dew Point Humidity Pressure Visibility Wind Dir Wind Speed Gust Speed Precip Events Conditions
12:55 AM 26.1 °F 21.9 °F 8.1 °F 47% 30.28 in 10.0 mi SSE 3.5 mph - N/A   Clear
1:55 AM 26.1 °F 20.5 °F 9.0 °F 49% 30.29 in 10.0 mi SSE 4.6 mph - N/A   Clear
2:55 AM 26.1 °F 20.5 °F 10.0 °F 51% 30.28 in 10.0 mi SSE 4.6 mph - N/A   Clear
3:55 AM 25.0 °F 18.1 °F 10.0 °F 53% 30.27 in 10.0 mi SSE 5.8 mph - N/A   Clear
4:55 AM 25.0 °F 17.1 °F 10.9 °F 55% 30.25 in 10.0 mi SSE 6.9 mph - N/A   Partly Cloudy
5:55 AM 25.0 °F 15.5 °F 10.9 °F 55% 30.24 in 10.0 mi SSE 9.2 mph - N/A   Mostly Cloudy
6:55 AM 27.0 °F 17.3 °F 10.9 °F 51% 30.23 in 10.0 mi SSE 10.4 mph - N/A   Overcast
7:55 AM 28.0 °F 18.6 °F 12.9 °F 53% 30.21 in 10.0 mi SSE 10.4 mph - N/A   Overcast
8:55 AM 30.0 °F 20.0 °F 17.1 °F 59% 30.19 in 10.0 mi SSE 12.7 mph - N/A   Overcast
9:55 AM 32.0 °F 22.5 °F 19.9 °F 61% 30.16 in 10.0 mi SSE 12.7 mph - N/A   Overcast
10:55 AM 33.1 °F 23.9 °F 23.0 °F 66% 30.14 in 10.0 mi SSE 12.7 mph 19.6 mph N/A   Overcast
11:55 AM 35.1 °F 25.5 °F 25.0 °F 67% 30.10 in 10.0 mi SSE 15.0 mph 26.5 mph N/A   Overcast
12:55 PM 37.0 °F 31.0 °F 27.0 °F 67% 30.07 in 10.0 mi SSE 8.1 mph 18.4 mph N/A   Overcast
1:14 PM 37.4 °F 30.3 °F 26.6 °F 65% 30.02 in 10.0 mi SSE 10.4 mph 21.9 mph N/A   Overcast
1:55 PM 36.0 °F 29.6 °F 28.9 °F 76% 30.06 in 6.0 mi SSE 8.1 mph - 0.00 in   Overcast
2:48 PM 35.6 °F 29.9 °F 32.0 °F 87% 29.99 in 3.0 mi SSE 6.9 mph - 0.01 in Snow Light Snow
2:52 PM 35.6 °F 29.9 °F 32.0 °F 87% 29.99 in 2.5 mi Variable 6.9 mph - 0.01 in Snow Light Snow
2:55 PM 34.0 °F 28.0 °F 32.0 °F 92% 30.04 in 2.5 mi SSE 6.9 mph - 0.01 in Snow Light Snow
3:12 PM 33.8 °F 28.6 °F 32.0 °F 93% 29.99 in 1.5 mi SSE 5.8 mph - 0.02 in Snow Light Snow
3:25 PM 33.8 °F 29.6 °F 32.0 °F 93% 29.98 in 0.5 mi SSE 4.6 mph - 0.04 in Fog , Snow Snow
3:43 PM 33.8 °F 28.6 °F 32.0 °F 93% 29.98 in 0.2 mi SSE 5.8 mph - 0.06 in Fog , Snow Snow
3:55 PM 33.1 °F 27.7 °F 32.0 °F 96% 30.04 in 0.2 mi SSE 5.8 mph - 0.10 in Fog , Snow Heavy Snow
4:17 PM 33.8 °F 28.6 °F 32.0 °F 93% 29.98 in 0.2 mi SSE 5.8 mph - 0.05 in Fog , Snow Heavy Snow
4:55 PM 33.1 °F 26.9 °F 32.0 °F 96% 30.02 in 0.2 mi SSE 6.9 mph - 0.14 in Fog , Snow Heavy Snow
5:11 PM 33.8 °F 27.7 °F 32.0 °F 93% 29.96 in 0.5 mi SSE 6.9 mph - 0.02 in Fog , Snow Snow
5:55 PM 33.1 °F 26.9 °F 32.0 °F 96% 30.01 in 1.2 mi SSE 6.9 mph - 0.07 in Snow Light Snow
6:16 PM 33.8 °F 30.8 °F 32.0 °F 93% 29.96 in 0.5 mi Variable 3.5 mph - 0.01 in Fog , Snow Snow
6:22 PM 33.8 °F 30.8 °F 32.0 °F 93% 29.96 in 1.0 mi Variable 3.5 mph - 0.02 in Snow Light Snow
6:46 PM 33.8 °F 28.6 °F 32.0 °F 93% 29.96 in 2.0 mi Variable 5.8 mph - 0.02 in Snow Light Snow
6:55 PM 33.1 °F 28.7 °F 32.0 °F 96% 30.02 in 2.5 mi Variable 4.6 mph - 0.02 in   Overcast
7:02 PM 33.8 °F 28.6 °F 32.0 °F 93% 29.96 in 3.0 mi South 5.8 mph - 0.00 in   Overcast
7:18 PM 33.8 °F 27.7 °F 32.0 °F 93% 29.96 in 2.5 mi South 6.9 mph - 0.01 in Snow Light Snow
7:33 PM 33.8 °F 28.6 °F 32.0 °F 93% 29.96 in 4.0 mi South 5.8 mph - 0.01 in Snow Light Snow
7:55 PM 33.1 °F 26.9 °F 32.0 °F 96% 30.01 in 7.0 mi SSW 6.9 mph - 0.01 in   Overcast
8:55 PM 34.0 °F 28.0 °F 32.0 °F 92% 30.03 in 4.0 mi SW 6.9 mph - N/A   Overcast
9:55 PM 34.0 °F 29.8 °F 33.1 °F 96% 30.05 in 9.0 mi WSW 4.6 mph - N/A   Overcast
10:07 PM 33.8 °F 29.6 °F 33.8 °F 100% 30.00 in 8.0 mi WSW 4.6 mph - N/A   Overcast
10:20 PM 33.8 °F 28.6 °F 33.8 °F 100% 30.01 in 9.0 mi WSW 5.8 mph - N/A   Overcast
10:44 PM 33.8 °F 29.6 °F 32.0 °F 93% 30.01 in 10.0 mi WSW 4.6 mph - N/A   Overcast
10:55 PM 34.0 °F 29.8 °F 32.0 °F 92% 30.06 in 9.0 mi WSW 4.6 mph - N/A   Overcast
11:55 PM 34.0 °F 27.2 °F 32.0 °F 92% 30.08 in 10.0 mi WSW 8.1 mph - N/A   Overcast